Tracking 19709 objects as of 18-Jun-2019
HD Live streaming from Space Station
objects crossing your sky now

TITAN 3C TRANSTAGE R/B

Track TITAN 3C TRANSTAGE R/B now!


NORAD ID: 11560
Int'l Code: 1979-086C
Perigee: 30,198.6 km
Apogee: 41,726.1 km
Inclination: 6.4 °
Period: 1,444.7 minutes
Semi major axis: 42333 km
RCS: Unknown
Launch date: October 1, 1979
Source: United States (US)
Launch site: AIR FORCE EASTERN TEST RANGE (AFETR)

Note: This is a ROCKET BODY
aabbcc
Your satellite tracking list
Your tracking list is empty




NASA's NSSDC Master Catalog

Two Line Element Set (TLE):
1 11560U 79086C   19169.06047363 -.00000153  00000-0  00000+0 0  9997
2 11560   6.3647 352.1753 1361520 100.7651 274.8849  0.99673416   754
Source of the keplerian elements: McCants